C/2019 E3 ( ATLAS )

Japanese version
Home page
Updated on August 15, 2020

---------------------------------------------------------------------

* Profile

Discovery Date March 5, 2019
Magnitude 18.4 mag
Discoverer Asteroid Terrestrial-Impact Last Alert System (ATLAS) search program

* Orbital Elements

Epoch 2023 Dec. 2.0 TT = JDT 2460280.5
T 2023 Nov. 15.25842 TT                                 Rudenko
q  10.3128668            (2000.0)            P               Q
z  +0.0001227      Peri.  280.69965     +0.15950016     +0.96239746
 +/-0.0000022      Node   347.23332     +0.26394232     -0.25620445
e   0.9987345      Incl.   84.29886     -0.95125924     +0.09027964
From 69 observations 2015 Jan. 22-2020 Feb. 24, mean residual 0".4.

* Finding Charts

* Magnitudes Graph

        m1 = 1.5 + 5 log d + 10.0 log r

---------------------------------------------------------------------

The orbital elements are published on M.P.E.C. 2020-F67.
The charts are made with StellaNavigator Ver.10 (AstroArts).
The magnitudes graphs are made with Comet for Windows.

---------------------------------------------------------------------

Copyright(C) Seiichi Yoshida (comet@aerith.net). All rights reserved.